Overview Statistics Trail Chart Weather Telemetry Raw packets
 

This is the latest recevied weather packets stored in our database for station/object F8KHU-13. If no packets are shown the sender has not sent any weather packets the latest 10 day(s).

<< 10 11 12 13 14 15 16 >>
Time Temp. Humidity Pressure Rain* Wind** Luminosity Snow
1788543622 18.89° C 52% 1015.9 hPa 0 mm - 0 W/m² -
1788542742 19.44° C 51% 1015.9 hPa 0 mm - 0 W/m² -
1788541862 18.89° C 48% 1016 hPa 0 mm - 0 W/m² -
1788541842 18.89° C 48% 1016 hPa 0 mm - 0 W/m² -
1788540962 19.44° C 42% 1015.9 hPa 0 mm - 0 W/m² -
1788540922 20° C 38% 1015.9 hPa 0 mm - 0 W/m² -
1788540062 20.56° C 30% 1015.8 hPa 0 mm - 0 W/m² -
1788540043 20.56° C 30% 1015.8 hPa 0 mm - 0 W/m² -
1788539143 20.56° C 30% 1015.8 hPa 0 mm - 0 W/m² -
1788539123 20.56° C 30% 1015.7 hPa 0 mm - 0 W/m² -
1788538263 20.56° C 32% 1015.8 hPa 0 mm - 0 W/m² -
1788538243 20.56° C 30% 1015.6 hPa 0 mm - 0 W/m² -
1788538235 20.56° C 30% 1015.8 hPa 0 mm - 0 W/m² -
1788537343 21.67° C 30% 1015.5 hPa 0 mm - 0 W/m² -
1788537323 21.67° C 30% 1015.4 hPa 0 mm - 0 W/m² -
1788536463 22.78° C 26% 1014.9 hPa 0 mm - 0 W/m² -
1788536443 22.78° C 26% 1014.8 hPa 0 mm - 0 W/m² -
1788536423 22.78° C 26% 1014.9 hPa 0 mm - 0 W/m² -
1788535543 22.78° C 26% 1014.9 hPa 0 mm - 0 W/m² -
1788535523 22.78° C 26% 1014.9 hPa 0 mm - 0 W/m² -
1788534665 23.89° C 26% 1015 hPa 0 mm - 0 W/m² -
1788534645 23.89° C 26% 1014.9 hPa 0 mm - 0 W/m² -
1788534626 23.89° C 26% 1014.9 hPa 0 mm - 0 W/m² -
1788533752 22.78° C 26% 1014.9 hPa 0 mm - 0 W/m² -
1788533752 22.78° C 26% 1015 hPa 0 mm - 0 W/m² -

* Rain latest hour (hover to see other rain measurements)
** Current wind speed in m/s (hover to see current wind gust speed)